Previsão horária em Abbiategrasso

Hoje, 12 Abril, Segunda-feira

Tempo Temperatura Precipitação Vento Pressão Humidade
00:00 +8°C° 0.3 mm 0 m/s 753 mmHg 95%
01:00 +8°C° 0 mm 0 m/s 753 mmHg 96%
02:00 +8°C° 0.4 mm 0 m/s 752 mmHg 97%
03:00 +9°C° 0.4 mm 1 m/s 752 mmHg 97%
04:00 +10°C° 0.4 mm 1 m/s 751 mmHg 97%
05:00 +10°C° 0.3 mm 1 m/s 751 mmHg 97%
06:00 +10°C° 0.3 mm 1 m/s 751 mmHg 97%
07:00 +9°C° 0 mm 0 m/s 751 mmHg 97%
08:00 +10°C° 0.8 mm 1 m/s 751 mmHg 96%
09:00 +10°C° 0.8 mm 1 m/s 751 mmHg 96%
10:00 +10°C° 0.8 mm 1 m/s 751 mmHg 95%
11:00 +8°C° 1.8 mm 2 m/s 751 mmHg 94%
12:00 +8°C° 1.8 mm 3 m/s 751 mmHg 93%
13:00 +7°C° 0 mm 4 m/s 751 mmHg 91%
14:00 +7°C° 0.6 mm 4 m/s 750 mmHg 88%
15:00 +7°C° 0.6 mm 4 m/s 750 mmHg 84%
16:00 +7°C° 0.6 mm 4 m/s 750 mmHg 81%
17:00 +8°C° 0 mm 3 m/s 750 mmHg 80%
18:00 +8°C° 0 mm 2 m/s 750 mmHg 79%
19:00 +9°C° 0 mm 1 m/s 750 mmHg 78%
20:00 +8°C° 0 mm 1 m/s 751 mmHg 79%
21:00 +7°C° 0 mm 2 m/s 751 mmHg 80%
22:00 +7°C° 0 mm 2 m/s 751 mmHg 81%
23:00 +6°C° 0 mm 2 m/s 751 mmHg 79%

Amanhã, 13 Abril, Terça-feira

Tempo Temperatura Precipitação Vento Pressão Humidade
00:00 +6°C° 0 mm 2 m/s 752 mmHg 77%
01:00 +5°C° 0 mm 2 m/s 752 mmHg 75%
02:00 +5°C° 0 mm 2 m/s 752 mmHg 73%
03:00 +4°C° 0 mm 2 m/s 752 mmHg 70%
04:00 +4°C° 0 mm 2 m/s 752 mmHg 68%
05:00 +4°C° 0 mm 2 m/s 752 mmHg 67%
06:00 +4°C° 0 mm 2 m/s 753 mmHg 65%
07:00 +4°C° 0 mm 2 m/s 753 mmHg 64%
08:00 +6°C° 0 mm 2 m/s 754 mmHg 58%
09:00 +7°C° 0 mm 2 m/s 754 mmHg 53%
10:00 +9°C° 0 mm 3 m/s 755 mmHg 48%
11:00 +10°C° 0 mm 3 m/s 755 mmHg 49%
12:00 +11°C° 0 mm 3 m/s 755 mmHg 50%
13:00 +11°C° 0 mm 3 m/s 755 mmHg 51%
14:00 +11°C° 0 mm 4 m/s 755 mmHg 53%
15:00 +11°C° 0 mm 4 m/s 754 mmHg 56%
16:00 +11°C° 0 mm 4 m/s 754 mmHg 58%
17:00 +10°C° 0 mm 3 m/s 754 mmHg 64%
18:00 +9°C° 0 mm 3 m/s 755 mmHg 71%
19:00 +8°C° 0 mm 2 m/s 755 mmHg 77%
20:00 +7°C° 0 mm 2 m/s 755 mmHg 80%
21:00 +6°C° 0 mm 2 m/s 756 mmHg 83%
22:00 +6°C° 0 mm 2 m/s 756 mmHg 86%
23:00 +5°C° 0 mm 2 m/s 757 mmHg 85%

Depois de amanhã, 14 Abril, Quarta-feira

Tempo Temperatura Precipitação Vento Pressão Humidade
00:00 +5°C° 0 mm 2 m/s 757 mmHg 85%
01:00 +5°C° 0 mm 2 m/s 757 mmHg 84%
02:00 +4°C° 0 mm 2 m/s 757 mmHg 83%
03:00 +4°C° 0 mm 2 m/s 757 mmHg 82%
04:00 +4°C° 0 mm 2 m/s 757 mmHg 81%
05:00 +5°C° 0 mm 1 m/s 757 mmHg 77%
06:00 +5°C° 0 mm 1 m/s 757 mmHg 73%
07:00 +6°C° 0 mm 1 m/s 757 mmHg 69%
08:00 +7°C° 0 mm 1 m/s 757 mmHg 65%
09:00 +9°C° 0 mm 1 m/s 757 mmHg 61%
10:00 +10°C° 0 mm 1 m/s 757 mmHg 56%
11:00 +11°C° 0 mm 1 m/s 756 mmHg 54%
12:00 +12°C° 0 mm 1 m/s 756 mmHg 52%
13:00 +13°C° 0 mm 1 m/s 755 mmHg 50%
14:00 +13°C° 0 mm 2 m/s 755 mmHg 49%
15:00 +13°C° 0 mm 2 m/s 754 mmHg 49%
16:00 +13°C° 0 mm 2 m/s 754 mmHg 48%
17:00 +12°C° 0 mm 2 m/s 754 mmHg 53%
18:00 +11°C° 0 mm 1 m/s 754 mmHg 59%
19:00 +10°C° 0 mm 1 m/s 754 mmHg 65%
20:00 +10°C° 0.1 mm 1 m/s 754 mmHg 68%
21:00 +9°C° 0.1 mm 1 m/s 755 mmHg 72%
22:00 +9°C° 0.1 mm 1 m/s 755 mmHg 76%
23:00 +8°C° 0.2 mm 1 m/s 755 mmHg 79%

15 Abril, Quinta-feira

Tempo Temperatura Precipitação Vento Pressão Humidade
00:00 +7°C° 0.2 mm 2 m/s 755 mmHg 83%
01:00 +6°C° 0.2 mm 2 m/s 755 mmHg 86%
02:00 +6°C° 0.3 mm 2 m/s 755 mmHg 86%
03:00 +6°C° 0.3 mm 2 m/s 755 mmHg 86%
04:00 +5°C° 0.3 mm 2 m/s 755 mmHg 86%
05:00 +5°C° 0.2 mm 2 m/s 755 mmHg 86%
06:00 +5°C° 0.2 mm 2 m/s 755 mmHg 86%
07:00 +5°C° 0.2 mm 2 m/s 756 mmHg 86%
08:00 +5°C° 0.1 mm 3 m/s 756 mmHg 82%
09:00 +7°C° 0.1 mm 3 m/s 756 mmHg 77%
10:00 +8°C° 0.1 mm 3 m/s 756 mmHg 73%
11:00 +9°C° 0.2 mm 3 m/s 755 mmHg 71%
12:00 +9°C° 0.2 mm 3 m/s 755 mmHg 69%
13:00 +10°C° 0.2 mm 2 m/s 755 mmHg 68%
14:00 +10°C° 0.1 mm 2 m/s 754 mmHg 65%
15:00 +10°C° 0.1 mm 2 m/s 754 mmHg 63%
16:00 +12°C° 0.1 mm 2 m/s 753 mmHg 60%
17:00 +10°C° 0.1 mm 2 m/s 753 mmHg 66%
18:00 +9°C° 0.1 mm 2 m/s 753 mmHg 72%
19:00 +8°C° 0.1 mm 2 m/s 753 mmHg 77%
20:00 +7°C° 0.1 mm 2 m/s 754 mmHg 81%
21:00 +7°C° 0.1 mm 2 m/s 754 mmHg 85%
22:00 +6°C° 0.1 mm 2 m/s 754 mmHg 88%
23:00 +6°C° 0.1 mm 2 m/s 754 mmHg 88%

16 Abril, Sexta-feira

Tempo Temperatura Precipitação Vento Pressão Humidade
00:00 +6°C° 0.1 mm 2 m/s 754 mmHg 88%
01:00 +6°C° 0.1 mm 2 m/s 754 mmHg 88%
02:00 +5°C° 0 mm 2 m/s 754 mmHg 87%
03:00 +5°C° 0 mm 2 m/s 754 mmHg 87%
04:00 +5°C° 0 mm 2 m/s 754 mmHg 86%
05:00 +5°C° 0 mm 2 m/s 754 mmHg 85%
06:00 +5°C° 0 mm 2 m/s 754 mmHg 84%
07:00 +5°C° 0 mm 2 m/s 754 mmHg 83%
08:00 +7°C° 0 mm 2 m/s 754 mmHg 76%
09:00 +9°C° 0 mm 2 m/s 754 mmHg 69%
10:00 +10°C° 0 mm 2 m/s 754 mmHg 61%
11:00 +12°C° 0 mm 2 m/s 753 mmHg 56%
12:00 +13°C° 0 mm 2 m/s 753 mmHg 51%
13:00 +14°C° 0 mm 2 m/s 752 mmHg 46%
14:00 +14°C° 0 mm 2 m/s 752 mmHg 45%
15:00 +14°C° 0 mm 2 m/s 752 mmHg 44%
16:00 +15°C° 0 mm 2 m/s 751 mmHg 43%
17:00 +13°C° 0 mm 2 m/s 751 mmHg 50%
18:00 +12°C° 0 mm 2 m/s 751 mmHg 56%
19:00 +10°C° 0 mm 2 m/s 751 mmHg 62%
20:00 +9°C° 0 mm 2 m/s 752 mmHg 64%
21:00 +10°C° 0 mm 1 m/s 752 mmHg 66%
22:00 +9°C° 0 mm 1 m/s 752 mmHg 68%
23:00 +9°C° 0 mm 1 m/s 752 mmHg 71%

17 Abril, Sábado

Tempo Temperatura Precipitação Vento Pressão Humidade
00:00 +8°C° 0 mm 1 m/s 752 mmHg 73%
01:00 +8°C° 0 mm 1 m/s 752 mmHg 75%
02:00 +7°C° 0 mm 1 m/s 752 mmHg 76%
03:00 +7°C° 0 mm 1 m/s 752 mmHg 77%
04:00 +7°C° 0 mm 1 m/s 752 mmHg 77%
05:00 +7°C° 0 mm 1 m/s 751 mmHg 76%
06:00 +7°C° 0 mm 1 m/s 751 mmHg 74%
07:00 +7°C° 0 mm 0 m/s 751 mmHg 72%
08:00 +9°C° 0 mm 0 m/s 751 mmHg 66%
09:00 +10°C° 0 mm 0 m/s 751 mmHg 59%
10:00 +12°C° 0 mm 0 m/s 751 mmHg 53%
11:00 +14°C° 0 mm 1 m/s 751 mmHg 50%
12:00 +15°C° 0 mm 1 m/s 750 mmHg 46%
13:00 +16°C° 0 mm 2 m/s 750 mmHg 42%
14:00 +16°C° 0 mm 2 m/s 750 mmHg 42%
15:00 +16°C° 0 mm 2 m/s 749 mmHg 42%
16:00 +16°C° 0 mm 2 m/s 749 mmHg 42%
17:00 +15°C° 0 mm 2 m/s 749 mmHg 49%
18:00 +14°C° 0 mm 2 m/s 749 mmHg 56%
19:00 +12°C° 0 mm 2 m/s 749 mmHg 63%
20:00 +12°C° 0 mm 2 m/s 749 mmHg 66%
21:00 +11°C° 0 mm 1 m/s 750 mmHg 69%
22:00 +10°C° 0 mm 1 m/s 750 mmHg 72%
23:00 +10°C° 0 mm 1 m/s 750 mmHg 74%
Mostrar mais